Погода в Портянуре

Россия / Республика Марий Эл     56°40′56″N   49°16′28″E
темп.,
°C
ветер,
м/с
пор.,
м/с
влажн.,
%
обл.,
%
осадки,
мм/ч
давл.,
гПа
погр.,
м
17 мая, пн
пн1700:00+17юз338577 0.0 101545
03:00+15сз229292 0.2 101614
06:00+18ю228396 3.9 101699
09:00+23зсз2365100 4.1 1017605
12:00+25зсз355041 0.0 10171316
15:00+25сз445132 0.0 1017887
18:00+23с346491 0.2 1017114
21:00+18ссв22735 0.6 101816
18 мая, вт
вт1800:00+16св33765 0.1 101830
03:00+14всв348349 0.1 101967
06:00+16всв477854 0.0 1020203
09:00+21всв446145 0.0 1020626
12:00+24всв445118 0.0 1020894
15:00+24всв444519 0.0 1020920
18:00+22всв36595 0.0 1020195
21:00+16всв497153 0.0 1020147
19 мая, ср
ср1900:00+15в3107151 0.0 1020168
03:00+13вюв3108091 0.0 1021179
06:00+16вюв4117542 0.0 1021376
09:00+20вюв67555 0.0 1021845
12:00+23вюв67415 0.0 10211257
15:00+24юв57405 0.0 10201414
18:00+21юв47540 0.0 1020243
21:00+16вюв310715 0.0 1020168
20 мая, чт
чт2000:00+14вюв310750 0.0 1020179
03:00+12юв311763 0.0 1020190
06:00+16юв376815 0.0 1020212
09:00+22юв58455 0.0 1020996
12:00+23юв794023 0.0 10191585
15:00+23ююв6842100 0.0 10191713
18:00+21ююв475298 0.0 1018253
21:00+16юв356897 0.0 101873
21 мая, пт
пт2100:00+13ююв34740 0.0 101852
03:00+12юв34756 0.0 101867
06:00+15юв386999 0.0 1018207
09:00+21ююв5847100 0.0 1018957
12:00+23ю693824 0.0 10172448
15:00+23ю68377 0.0 10162885
18:00+21ю594962 0.0 1015326
21:00+17ю5135982 0.0 1015326